Météo par heure à Al Marfa

Ce jour, 15 Mai, Samedi

Heure Température Précipitation Vent Pression Humidité
00:00 +32°C° 0 mm 4 m/s 751 mmHg 60%
01:00 +30°C° 0 mm 4 m/s 750 mmHg 61%
02:00 +30°C° 0 mm 4 m/s 750 mmHg 58%
03:00 +30°C° 0 mm 3 m/s 750 mmHg 54%
04:00 +30°C° 0 mm 4 m/s 750 mmHg 54%
05:00 +31°C° 0 mm 3 m/s 750 mmHg 52%
06:00 +31°C° 0 mm 2 m/s 750 mmHg 51%
07:00 +32°C° 0 mm 2 m/s 750 mmHg 50%
08:00 +35°C° 0 mm 2 m/s 751 mmHg 41%
09:00 +38°C° 0 mm 3 m/s 751 mmHg 33%
10:00 +41°C° 0 mm 4 m/s 751 mmHg 25%
11:00 +41°C° 0 mm 5 m/s 751 mmHg 25%
12:00 +42°C° 0 mm 5 m/s 751 mmHg 25%
13:00 +42°C° 0 mm 6 m/s 751 mmHg 25%
14:00 +41°C° 0 mm 6 m/s 750 mmHg 28%
15:00 +41°C° 0 mm 6 m/s 750 mmHg 30%
16:00 +40°C° 0 mm 6 m/s 750 mmHg 32%
17:00 +37°C° 0 mm 5 m/s 750 mmHg 40%
18:00 +35°C° 0 mm 4 m/s 750 mmHg 49%
19:00 +34°C° 0 mm 4 m/s 750 mmHg 57%
20:00 +33°C° 0 mm 3 m/s 750 mmHg 54%
21:00 +33°C° 0 mm 3 m/s 751 mmHg 50%
22:00 +32°C° 0 mm 2 m/s 751 mmHg 47%
23:00 +33°C° 0 mm 3 m/s 750 mmHg 49%

Demain, 16 Mai, Dimanche

Heure Température Précipitation Vent Pression Humidité
00:00 +33°C° 0 mm 3 m/s 750 mmHg 50%
01:00 +31°C° 0 mm 3 m/s 750 mmHg 52%
02:00 +31°C° 0 mm 3 m/s 750 mmHg 52%
03:00 +30°C° 0 mm 2 m/s 750 mmHg 52%
04:00 +29°C° 0 mm 2 m/s 750 mmHg 52%
05:00 +30°C° 0 mm 2 m/s 751 mmHg 52%
06:00 +31°C° 0 mm 1 m/s 751 mmHg 51%
07:00 +32°C° 0 mm 1 m/s 752 mmHg 50%
08:00 +35°C° 0 mm 2 m/s 752 mmHg 40%
09:00 +38°C° 0 mm 2 m/s 752 mmHg 31%
10:00 +40°C° 0 mm 3 m/s 752 mmHg 21%
11:00 +42°C° 0 mm 3 m/s 752 mmHg 20%
12:00 +43°C° 0 mm 3 m/s 752 mmHg 18%
13:00 +44°C° 0 mm 4 m/s 752 mmHg 16%
14:00 +43°C° 0 mm 5 m/s 751 mmHg 18%
15:00 +42°C° 0 mm 5 m/s 751 mmHg 20%
16:00 +42°C° 0 mm 6 m/s 751 mmHg 22%
17:00 +40°C° 0 mm 5 m/s 751 mmHg 30%
18:00 +36°C° 0 mm 4 m/s 751 mmHg 39%
19:00 +34°C° 0 mm 4 m/s 751 mmHg 47%
20:00 +34°C° 0 mm 3 m/s 751 mmHg 47%
21:00 +32°C° 0 mm 2 m/s 752 mmHg 47%
22:00 +32°C° 0 mm 2 m/s 752 mmHg 46%
23:00 +31°C° 0 mm 2 m/s 752 mmHg 45%

Après-demain, 17 Mai, Lundi

Heure Température Précipitation Vent Pression Humidité
00:00 +31°C° 0 mm 2 m/s 752 mmHg 44%
01:00 +31°C° 0 mm 2 m/s 752 mmHg 42%
02:00 +31°C° 0 mm 2 m/s 751 mmHg 42%
03:00 +30°C° 0 mm 1 m/s 751 mmHg 42%
04:00 +30°C° 0 mm 1 m/s 751 mmHg 42%
05:00 +30°C° 0 mm 1 m/s 752 mmHg 39%
06:00 +31°C° 0 mm 2 m/s 752 mmHg 36%
07:00 +32°C° 0 mm 2 m/s 753 mmHg 34%
08:00 +34°C° 0 mm 1 m/s 753 mmHg 29%
09:00 +36°C° 0 mm 1 m/s 753 mmHg 24%
10:00 +39°C° 0 mm 1 m/s 753 mmHg 19%
11:00 +40°C° 0 mm 2 m/s 753 mmHg 18%
12:00 +42°C° 0 mm 3 m/s 752 mmHg 17%
13:00 +43°C° 0 mm 5 m/s 752 mmHg 15%
14:00 +42°C° 0 mm 5 m/s 752 mmHg 18%
15:00 +41°C° 0 mm 6 m/s 751 mmHg 21%
16:00 +40°C° 0 mm 6 m/s 751 mmHg 24%
17:00 +37°C° 0 mm 5 m/s 751 mmHg 33%
18:00 +35°C° 0 mm 5 m/s 751 mmHg 42%
19:00 +33°C° 0 mm 4 m/s 751 mmHg 51%
20:00 +33°C° 0 mm 4 m/s 751 mmHg 54%
21:00 +31°C° 0 mm 3 m/s 752 mmHg 57%
22:00 +30°C° 0 mm 3 m/s 752 mmHg 60%
23:00 +30°C° 0 mm 3 m/s 752 mmHg 63%

18 Mai, Mardi

Heure Température Précipitation Vent Pression Humidité
00:00 +30°C° 0 mm 3 m/s 751 mmHg 67%
01:00 +29°C° 0 mm 3 m/s 751 mmHg 71%
02:00 +29°C° 0 mm 2 m/s 751 mmHg 72%
03:00 +29°C° 0 mm 2 m/s 751 mmHg 72%
04:00 +28°C° 0 mm 1 m/s 751 mmHg 73%
05:00 +29°C° 0 mm 2 m/s 751 mmHg 68%
06:00 +30°C° 0 mm 2 m/s 751 mmHg 64%
07:00 +31°C° 0 mm 2 m/s 752 mmHg 60%
08:00 +34°C° 0 mm 3 m/s 752 mmHg 49%
09:00 +36°C° 0 mm 3 m/s 752 mmHg 38%
10:00 +40°C° 0 mm 4 m/s 752 mmHg 26%
11:00 +40°C° 0 mm 4 m/s 752 mmHg 25%
12:00 +41°C° 0 mm 4 m/s 751 mmHg 24%
13:00 +42°C° 0 mm 5 m/s 751 mmHg 22%
14:00 +42°C° 0 mm 5 m/s 750 mmHg 23%
15:00 +42°C° 0 mm 6 m/s 750 mmHg 23%
16:00 +42°C° 0 mm 6 m/s 750 mmHg 24%
17:00 +40°C° 0 mm 6 m/s 750 mmHg 33%
18:00 +37°C° 0 mm 5 m/s 750 mmHg 41%
19:00 +35°C° 0 mm 4 m/s 750 mmHg 50%
20:00 +34°C° 0 mm 4 m/s 751 mmHg 52%
21:00 +33°C° 0 mm 3 m/s 751 mmHg 55%
22:00 +32°C° 0 mm 2 m/s 751 mmHg 57%
23:00 +31°C° 0 mm 2 m/s 751 mmHg 58%

19 Mai, Mercredi

Heure Température Précipitation Vent Pression Humidité
00:00 +31°C° 0 mm 2 m/s 751 mmHg 58%
01:00 +31°C° 0 mm 2 m/s 751 mmHg 59%
02:00 +30°C° 0 mm 2 m/s 751 mmHg 61%
03:00 +30°C° 0 mm 2 m/s 751 mmHg 64%
04:00 +30°C° 0 mm 2 m/s 751 mmHg 66%
05:00 +31°C° 0 mm 2 m/s 751 mmHg 62%
06:00 +31°C° 0 mm 2 m/s 751 mmHg 57%
07:00 +32°C° 0 mm 2 m/s 752 mmHg 53%
08:00 +35°C° 0 mm 1 m/s 752 mmHg 42%
09:00 +37°C° 0 mm 1 m/s 752 mmHg 32%
10:00 +41°C° 0 mm 1 m/s 752 mmHg 21%
11:00 +42°C° 0 mm 2 m/s 752 mmHg 18%
12:00 +43°C° 0 mm 2 m/s 751 mmHg 16%
13:00 +45°C° 0 mm 3 m/s 751 mmHg 13%
14:00 +44°C° 0 mm 4 m/s 751 mmHg 17%
15:00 +44°C° 0 mm 6 m/s 751 mmHg 21%
16:00 +43°C° 0 mm 7 m/s 750 mmHg 25%
17:00 +40°C° 0 mm 6 m/s 751 mmHg 30%
18:00 +37°C° 0 mm 4 m/s 751 mmHg 36%
19:00 +35°C° 0 mm 3 m/s 751 mmHg 42%
20:00 +35°C° 0 mm 3 m/s 751 mmHg 42%
21:00 +34°C° 0 mm 4 m/s 751 mmHg 41%
22:00 +34°C° 0 mm 4 m/s 751 mmHg 41%
23:00 +34°C° 0 mm 4 m/s 751 mmHg 44%

20 Mai, Jeudi

Heure Température Précipitation Vent Pression Humidité
00:00 +33°C° 0 mm 4 m/s 751 mmHg 47%
01:00 +33°C° 0 mm 4 m/s 751 mmHg 50%
02:00 +33°C° 0 mm 4 m/s 751 mmHg 50%
03:00 +33°C° 0 mm 4 m/s 750 mmHg 50%
04:00 +32°C° 0 mm 4 m/s 750 mmHg 50%
05:00 +33°C° 0 mm 4 m/s 751 mmHg 50%
06:00 +33°C° 0 mm 4 m/s 751 mmHg 50%
07:00 +33°C° 0 mm 4 m/s 751 mmHg 51%
08:00 +36°C° 0 mm 4 m/s 752 mmHg 41%
09:00 +40°C° 0 mm 4 m/s 752 mmHg 31%
10:00 +42°C° 0 mm 5 m/s 752 mmHg 22%
11:00 +43°C° 0 mm 5 m/s 752 mmHg 20%
12:00 +45°C° 0 mm 6 m/s 751 mmHg 19%
13:00 +45°C° 0 mm 7 m/s 751 mmHg 17%
14:00 +45°C° 0 mm 7 m/s 751 mmHg 18%
15:00 +44°C° 0 mm 7 m/s 751 mmHg 19%
16:00 +44°C° 0 mm 7 m/s 751 mmHg 20%
17:00 +40°C° 0 mm 6 m/s 751 mmHg 27%
18:00 +37°C° 0 mm 5 m/s 751 mmHg 34%
19:00 +35°C° 0 mm 4 m/s 751 mmHg 41%
20:00 +34°C° 0 mm 3 m/s 751 mmHg 44%
21:00 +33°C° 0 mm 3 m/s 751 mmHg 47%
22:00 +31°C° 0 mm 3 m/s 752 mmHg 50%
23:00 +31°C° 0 mm 3 m/s 751 mmHg 48%
Voir plus

Nous avons besoin de votre consentement

Meteoprog et ses fournisseurs de services peuvent stocker et accéder à des données personnelles telles que des cookies, des identifiants d'appareils ou d'autres technologies similaires sur votre appareil et traiter ces données pour personnaliser le contenu et les publicités, ainsi que pour fournir des fonctionnalités de médias sociaux et analyser le trafic.

  • Stocker et/ou accéder à des informations sur votre appareil

    Des cookies, des identifiants d'appareils ou d'autres informations peuvent être stockés ou accessibles sur votre appareil aux fins indiquées ci-dessus.

  • Annonces et contenus personnalisés, mesure des annonces et des contenus, connaissance de l'audience et développement de produits

    Les annonces et le contenu peuvent être personnalisés en fonction d'un profil. D'autres données peuvent être ajoutées pour mieux personnaliser les annonces et le contenu. Les performances des publicités et du contenu peuvent être mesurées. Il est possible d'obtenir des informations sur le public qui a vu les publicités et le contenu. Ces données peuvent être utilisées pour développer ou améliorer l'expérience de l'utilisateur, les systèmes et les logiciels.

En cliquant sur "J'accepte", vous autorisez l'utilisation de cookies, des identifiants d'appareils, des balises web ou d'autres technologies similaires. Vos paramètres peuvent être modifiés dans le navigateur de votre appareil.

Dans certains cas, des intérêts légitimes peuvent être invoqués plutôt qu'un consentement. Vous pouvez en savoir plus à ce sujet dans notre Politique de confidentialité et de cookies.